Flag for U.S.A. Weather past 2 weeks in Gloucester, Massachusetts, U.S.A.

Now
74 °F

Sunny.


Feels Like: 75 °F
Forecast: 61 / 77 °F
Wind: 5 mph from Southwest

Location: Beverly Municipal Airport

Current Time: Jul 22, 2014 at 9:57:17 AM

Latest Report: Jul 22, 2014 at 8:53 AM


Visibility: 10 mi

Pressure: 30.11 "Hg

Humidity: 74%

Dew point: 65 °F

Location of GloucesterLocation

Historic Weather in Gloucester — Graph

°F

Gloucester temperature yesterday

Maximum temperature yesterday: 77 °F (at 2:53 PM)
Minimum temperature yesterday: 60 °F (at 6:53 AM)
Average temperature yesterday: 67 °F

Past Weeks' High & Low Weather Summary

 TemperatureHumidityPressure
High88 °F (Jul 8, 2:53 PM)97% (Jul 16, 10:00 PM)30.25 "Hg (Jul 16, 10:00 PM)
Low57 °F (Jul 12, 4:53 AM)42% (Jul 10, 4:53 PM)29.62 "Hg (Jul 9, 1:53 AM)
Average72 °F73%29.98 "Hg
* Reported Jul 7 7:53 AM — Jul 22 7:53 AM, Gloucester, Weather by CustomWeather, © 2014

Note: Actual official high and low records may vary slightly from our data, if they occured in-between our weather recording intervals... More about our weather records

Advertising

Gloucester weather history for previous 24 hours

 ConditionsComfort  
Time TempWeatherWind HumidityBarometerVisibility
7:53 AM
Jul 22
69 °FSunny.No wind81%30.12 "Hg10 mi
6:53 AM64 °FSunny.No wind87%30.11 "Hg8 mi
6:04 AM60 °FFog.No wind93%30.14 "Hg3 mi
6:00 AM60 °FFog.No wind93%30.14 "Hg1 mi
4:53 AM60 °FClear.3 mph90%30.11 "Hg10 mi
3:53 AM61 °FClear.No wind90%30.11 "Hg10 mi
2:53 AM61 °FClear.No wind90%30.11 "Hg10 mi
1:53 AM61 °FClear.No wind90%30.12 "Hg10 mi
12:53 AM62 °FClear.No wind86%30.13 "Hg10 mi
11:53 PM
Jul 21
62 °FClear.3 mph86%30.14 "Hg10 mi
10:53 PM62 °FClear.No wind86%30.15 "Hg10 mi
9:53 PM63 °FClear.3 mph90%30.15 "Hg10 mi
8:53 PM64 °FSunny.3 mph84%30.14 "Hg10 mi
7:53 PM65 °FSunny.3 mph85%30.14 "Hg10 mi
6:53 PM68 °FSunny.7 mph76%30.14 "Hg10 mi
5:53 PM70 °FSunny.6 mph71%30.14 "Hg10 mi
4:53 PM72 °FSunny.7 mph68%30.14 "Hg10 mi
3:53 PM75 °FSunny.9 mph60%30.14 "Hg10 mi
2:53 PM77 °FSunny.6 mph47%30.16 "Hg10 mi
1:53 PM76 °FSunny.7 mph52%30.16 "Hg10 mi
12:53 PM76 °FSunny.7 mph54%30.16 "Hg10 mi
11:53 AM75 °FSunny.7 mph55%30.18 "Hg10 mi
10:53 AM72 °FScattered clouds.7 mph64%30.19 "Hg10 mi
9:53 AM70 °FScattered clouds.7 mph68%30.19 "Hg10 mi
Weather by CustomWeather, © 2014

See weather overviewHow to use our weather pages